Regional Weather Roundup
Issued by NWS Goodland, KS

Home | Current Version | Previous Version | Text Only | Print | Product List | Glossary Off
Versions: 1 2 3 4 5 6 7 8 9 10 11 12 13 14 15 16 17 18 19 20 21 22 23 24 25 26 27 28 29 30 31 32 33 34 35 36 37 38 39 40 41 42 43 44 45 46 47 48 49 50

000
ASUS43 KGLD 291959
RWRGLD

GOODLAND FORECAST AREA HOURLY WEATHER ROUNDUP
NATIONAL WEATHER SERVICE GOODLAND KS
200 PM MDT MON MAY 29 2017

...OFFICIAL OBSERVATIONS...

CITY           SKY/WX    TMP DP  RH WIND       PRES   REMARKS
GOODLAND KS    PTSUNNY   71  44  37 N8        30.17F
HILL CITY KS   MOSUNNY   79  40  24 NW10      30.11F
IMPERIAL NEB   MOSUNNY   75  38  26 NW14      30.14F
MCCOOK NEB     MOSUNNY   77  41  27 N16G26    30.11F
AKRON CO       MOSUNNY   68  40  35 MISG      30.20F
BURLINGTON CO  MOSUNNY   70  44  39 NE6       30.20F
LIMON CO       MOSUNNY   66  43  43 SE9       30.22F
$$

...UNOFFICIAL OBSERVATIONS...

CITY           SKY/WX    TMP DP  RH WIND       PRES   REMARKS
LENORA KS        N/A     75  32  20 MISG        N/A
NORTON KS      MOSUNNY   73  37  27 NW13G20   30.10S
SHARON SPRINGS   N/A     73  46  38 NE12G18     N/A
TRENTON NEB      N/A     73  32  22 N8          N/A
KIT CARSON CO    N/A     70  42  36 MISG        N/A
YUMA CO        CLOUDY    70  27  19 CALM      30.17F
$$



USA.gov is the U.S. government's official web portal to all federal, state and local government web resources and services.